User: anonymous   Login
Location: Unspecified
(0.0000°N, 0.0000°E)
Time: 16:15:33
(UTC+00:00)
Language:

SAR-Lupe-4 - Orbit

View from above orbital plane
View from above orbital plane
View from above satellite
View from above satellite

Ground track
Ground track

The orbit data is extracted from the following two-line orbital elements,

1 32750U 08014A   18235.91625779 0.00000800  00000-0  29575-4 0    08
2 32750  98.1203 328.7263 0003000 307.1549  52.8450 15.27740275    09
Epoch (UTC): 23 August 2018 21:59:24
Eccentricity: 0.0003000
inclination: 98.1203°
perigee height: 480 km
apogee height: 484 km
right ascension of ascending node: 328.7263°
argument of perigee: 307.1549°
revolutions per day: 15.27740275
mean anomaly at epoch: 52.8450°
orbit number at epoch: 0

The dashed part of the orbit path shows where the satellite is in the earth's shadow,  

DLR